2024-149CQ

Last updated on Mon Sep 16 2024 00:02:04 GMT+0000 (Coordinated Universal Time)

1 60554U 24149CQ 24258.90919035 .00010460 00000+0 99137-3 0 9999 2 60554 97.7407 333.9491 0009933 62.4535 297.7693 14.93730712 4337
UTC large
Height (km)
Speed (km/s)
/
Latitude / Longitude
Inclination (degrees)
Orbital Period (minutes)
Azimuth
Elevation
Range (km)
Doppler Factor

Next 0 passes for location: London (51.5072 / 0.1276)

Sorry there are no passes over London.